RH
18 22 24 24 22 21 23 26 27 28 32 38 43 43 35 29 29 30 31 33 33 33 31 29 28 25 21 17 15 12 8 5 5 4 4 5 7 10 13 15 16 15 14 11 9 8 7 7 6 5 5 6 8 9 9 8 7 7 7 6 4 3 2 2 1 1 1 1 1 2 2 2 2 2 2 2 2 2 2 2 2 2 2 2 2 2 2 2
13 16 19 21 22 21 22 24 25 26 28 32 35 35 31 26 25 26 26 26 25 23 22 22 21 19 16 13 10 7 5 5 5 4 4 7 10 12 14 14 14 12 11 9 7 7 7 6 5 5 6 8 9 8 7 7 7 6 6 4 3 3 2 2 1 1 1 1 2 2 2 2 2 2 2 2 2 2 2 2 2 2 2 2 2 2 2 3
8 10 12 15 16 18 21 23 25 25 26 29 29 27 24 21 21 21 20 19 18 17 17 17 16 13 10 8 6 5 5 5 4 4 6 8 10 12 11 11 10 9 8 7 6 6 6 5 5 6 8 9 8 8 7 7 7 6 5 3 2 2 2 2 1 2 2 2 2 2 2 2 2 2 2 2 2 2 2 2 2 2 2 2 2 2 2 3
4 6 9 11 12 14 17 20 23 23 23 26 26 22 19 17 16 15 13 13 13 13 14 13 10 7 6 5 5 5 5 4 4 5 6 7 8 8 8 8 7 6 6 6 6 5 5 5 7 8 9 8 8 8 7 7 6 5 4 3 2 2 2 2 2 2 2 2 2 2 2 2 2 2 2 3 2 2 3 2 3 2 2 2 2 2 2 2
3 5 7 10 11 12 14 16 19 20 20 22 23 20 16 14 12 11 10 11 12 12 10 8 5 5 5 5 5 5 4 4 4 5 6 6 6 6 6 6 6 6 6 5 5 5 6 8 9 9 9 8 7 7 6 5 4 3 3 2 2 2 2 2 2 2 2 3 3 2 3 3 3 3 3 3 3 3 3 3 3 3 3 3 2 2 2 2
4 6 8 10 11 11 11 13 14 15 15 16 16 14 12 10 9 9 9 10 10 9 6 5 5 5 5 5 4 4 4 4 5 5 5 5 5 5 5 5 6 5 5 5 5 6 8 9 9 9 8 8 7 6 5 4 3 3 3 3 3 2 2 2 2 2 3 3 3 3 3 3 3 3 3 3 3 3 3 3 3 3 3 3 3 2 2 2
7 8 9 10 10 9 9 9 10 10 10 10 9 8 7 7 7 8 8 8 7 6 5 5 5 5 5 4 4 4 4 4 4 5 5 5 5 5 6 6 5 4 5 5 7 8 9 9 9 8 8 8 7 5 4 3 3 3 2 3 3 3 3 3 3 3 3 3 3 3 3 3 3 3 3 3 3 3 3 3 3 3 3 3 3 2 2 2
9 8 8 8 7 7 7 7 7 7 7 7 7 7 6 6 6 6 6 6 5 5 5 5 5 5 5 4 4 4 4 4 4 5 5 5 5 6 5 5 4 5 6 7 9 9 10 9 8 8 8 7 6 4 3 3 3 3 3 3 3 3 3 3 3 3 3 3 3 3 3 3 3 3 3 3 3 3 3 3 3 3 3 3 3 3 3 2
7 7 7 7 7 7 7 8 8 8 9 9 9 8 7 5 5 5 5 5 5 5 5 5 5 5 4 4 4 4 4 4 4 4 5 5 5 5 4 4 5 6 8 9 10 10 9 9 8 8 7 6 5 4 3 3 3 3 3 3 3 3 3 3 3 3 3 3 3 3 3 3 3 3 3 3 3 3 4 4 4 4 4 4 3 3 3 3
8 9 9 10 10 11 11 11 11 12 12 12 11 10 7 5 4 5 5 5 5 5 5 5 5 4 4 4 4 4 4 4 4 4 5 5 5 4 4 6 7 8 9 10 10 10 9 9 9 8 6 5 4 3 3 2 3 3 3 3 3 3 2 3 3 3 3 3 3 3 3 3 3 3 3 4 4 4 4 4 4 4 4 4 4 4 3 3
14 14 14 13 13 12 11 11 11 11 11 11 10 8 5 4 4 4 5 5 5 5 4 4 4 5 5 4 4 4 4 4 5 5 5 4 4 5 6 7 9 10 10 10 10 10 9 9 7 6 5 4 3 3 3 2 3 3 3 3 2 3 2 3 3 3 3 3 3 3 3 3 3 4 4 4 4 4 4 4 4 4 4 4 4 4 4 4
20 17 15 12 11 9 8 8 8 8 8 8 7 6 4 3 3 4 4 4 5 5 4 5 5 5 4 4 4 4 5 5 5 4 4 4 5 6 8 9 10 10 10 10 10 10 9 7 6 5 4 4 3 2 3 2 3 2 3 3 2 3 2 2 3 3 3 3 3 4 4 4 4 4 4 4 4 4 4 4 4 4 4 4 4 4 4 4
20 16 14 12 9 7 6 6 6 6 6 6 5 3 3 3 3 4 4 4 5 4 4 4 4 4 4 4 5 5 5 5 4 4 5 6 8 9 10 10 11 11 11 11 10 9 7 6 4 4 3 3 2 2 3 2 2 2 2 2 2 2 2 3 3 3 3 3 4 4 4 4 4 4 4 4 4 4 4 4 4 4 5 4 4 4 4 4
21 20 22 22 19 16 14 13 10 7 6 5 5 4 3 3 4 4 4 4 4 4 4 4 4 4 4 5 5 5 5 5 6 7 8 10 11 11 11 11 11 12 12 11 9 7 5 4 3 2 2 2 2 2 2 2 2 2 2 2 2 3 3 3 3 3 3 4 4 4 4 4 4 5 4 4 4 5 5 4 5 5 5 5 5 5 4 4
28 29 32 33 33 32 32 29 23 15 8 5 4 3 3 3 4 4 4 4 4 4 4 4 5 5 6 7 7 8 9 11 12 12 12 13 13 12 12 11 12 12 11 9 7 5 4 3 2 2 2 2 2 2 2 2 2 2 2 2 2 2 3 3 3 3 3 4 4 4 4 4 4 5 4 5 5 5 5 5 5 5 5 5 5 5 5 5
33 33 34 35 36 36 36 35 31 25 19 15 11 7 6 5 4 4 4 4 5 7 8 9 11 12 14 14 13 14 15 16 16 15 14 14 13 13 12 12 12 11 9 6 4 3 3 2 2 2 2 2 2 2 2 2 2 2 2 2 2 2 3 3 3 3 3 4 4 4 4 4 4 4 4 4 4 5 5 5 5 5 5 5 5 5 5 5
31 31 31 30 31 31 30 29 28 27 25 23 21 18 16 14 13 12 12 13 14 16 17 17 17 19 19 18 17 17 17 17 16 15 14 14 13 13 12 11 10 8 6 4 3 3 2 2 2 2 2 2 2 2 2 2 2 2 2 2 2 2 3 3 3 3 3 3 3 4 4 4 4 4 4 4 4 5 4 5 5 5 5 5 5 5 5 5
27 27 27 26 26 26 25 25 25 24 23 23 22 22 21 21 20 20 19 19 19 19 19 18 18 18 18 17 17 16 16 16 15 14 13 13 13 12 11 9 7 5 4 4 3 3 2 2 2 2 2 2 2 2 2 2 2 2 2 2 2 2 2 3 3 3 3 3 3 4 4 4 4 4 4 4 4 4 4 5 5 5 5 5 5 6 6 6
24 24 23 23 23 22 23 23 22 22 22 21 21 20 20 20 19 19 19 19 18 18 17 16 16 16 16 16 15 15 15 14 14 13 12 12 10 9 8 6 5 4 4 3 3 3 3 2 2 2 2 2 2 2 2 2 2 2 2 2 2 2 2 2 3 3 3 3 3 3 4 3 3 4 4 4 4 4 4 4 4 5 5 5 5 6 6 6
24 24 23 23 22 22 22 21 21 20 20 19 19 18 17 16 16 15 15 16 16 16 16 15 15 14 14 14 13 13 13 12 11 10 9 8 6 5 5 4 4 3 3 3 3 3 2 2 2 2 2 2 2 2 2 2 2 2 2 2 2 2 2 3 3 3 3 3 3 3 3 3 3 4 4 4 4 4 4 4 4 5 5 5 5 6 6 6
26 25 24 24 23 22 21 20 19 18 18 17 16 15 14 13 12 11 11 12 13 13 12 12 11 11 10 10 9 9 8 8 7 6 5 4 4 4 3 3 3 3 2 2 2 2 2 2 2 2 2 2 2 2 2 2 2 2 2 2 2 2 2 3 3 3 3 3 3 3 3 3 4 4 4 4 4 4 4 4 4 5 5 5 5 6 6 6
26 24 24 22 21 20 19 18 17 16 15 13 12 11 10 10 9 9 8 8 9 8 7 7 7 6 6 6 6 5 5 5 4 4 4 4 4 3 3 3 3 3 2 2 3 2 2 3 2 2 2 2 3 3 2 3 3 3 3 3 3 3 3 3 3 3 3 3 3 3 3 3 4 4 4 4 4 4 4 4 4 5 5 5 5 6 6 6
23 22 21 20 18 17 16 15 14 13 11 9 9 8 7 7 6 7 7 6 5 5 4 4 4 4 5 4 4 4 4 4 4 4 4 4 4 3 3 3 3 3 3 3 3 3 3 3 3 3 3 3 4 4 4 4 4 4 4 3 3 3 3 3 3 3 3 3 3 3 3 3 4 5 4 4 4 4 4 4 4 4 4 5 5 6 6 6
21 20 18 17 15 13 12 11 10 8 7 7 7 7 7 7 7 7 7 5 5 4 4 4 4 4 4 4 4 4 5 5 5 5 5 5 4 4 4 4 4 4 4 5 4 5 5 5 5 5 5 5 5 5 5 5 5 5 5 4 4 4 4 4 4 4 3 3 3 3 3 3 4 5 5 4 4 4 4 4 5 5 5 5 5 5 6 7
19 18 16 15 13 12 11 10 9 8 7 8 8 9 9 8 8 8 8 7 6 6 6 5 5 5 5 6 6 6 6 7 8 8 8 8 7 8 7 6 7 7 7 8 8 8 7 7 8 7 7 7 7 7 6 6 6 5 5 5 5 4 4 4 4 4 4 3 4 4 4 4 4 4 5 5 4 4 4 4 5 5 5 5 5 6 6 7
18 17 16 15 13 13 12 12 11 10 10 11 11 10 10 10 9 9 9 9 9 9 9 9 9 9 9 9 9 10 10 11 13 13 13 13 12 13 13 11 12 13 13 13 12 11 11 11 11 10 10 10 9 9 7 7 7 6 6 5 5 5 4 4 4 4 3 3 4 4 4 4 4 4 4 5 4 4 4 5 5 5 6 6 6 6 6 7
17 17 17 17 16 16 16 15 14 14 14 13 13 12 12 12 12 12 12 12 13 14 14 14 14 15 15 16 15 15 15 16 17 17 17 17 16 17 17 15 16 15 15 15 13 13 13 13 13 12 12 11 10 9 8 8 8 6 5 5 4 4 4 4 4 3 4 4 4 4 4 4 4 4 4 4 4 5 5 5 5 6 6 6 7 7 7 7
18 18 20 20 20 20 19 18 17 17 17 15 15 14 14 15 15 16 16 15 16 17 17 18 18 19 20 20 20 19 19 19 19 19 19 19 19 18 17 17 17 16 16 16 15 14 15 14 14 13 12 11 10 9 8 7 6 5 4 4 3 3 3 3 3 3 3 3 3 3 4 4 4 3 4 5 5 5 6 6 7 7 7 7 7 8 8 8
21 21 21 21 21 21 21 20 20 19 19 18 18 17 17 17 17 18 17 17 18 18 19 19 20 21 21 21 22 21 21 20 20 20 20 19 20 19 18 18 18 16 16 16 15 14 14 13 13 11 10 9 8 7 6 6 6 5 5 5 5 5 5 5 4 4 4 4 4 4 4 4 4 5 5 6 6 7 7 7 8 8 9 9 9 9 9 9
23 23 23 22 22 22 22 21 21 21 21 21 20 20 20 19 19 19 18 18 19 20 21 21 21 22 22 22 22 22 21 21 20 21 20 19 19 18 18 17 16 15 14 13 12 11 11 11 10 9 9 9 8 8 8 8 8 8 8 8 8 8 8 8 8 8 7 7 7 7 7 6 6 7 6 6 8 8 8 9 10 11 12 12 11 10 10 10
24 24 24 24 23 23 23 23 22 22 22 22 21 21 21 21 21 21 20 19 20 20 21 22 22 22 22 21 21 21 21 20 19 19 18 18 17 16 15 14 13 13 12 11 11 10 10 10 10 10 10 10 10 10 9 9 8 8 7 7 7 7 7 7 7 7 6 7 7 7 7 7 7 8 7 7 9 9 10 12 13 14 14 13 12 12 12 12
26 25 25 25 25 25 24 24 24 24 23 23 23 23 22 22 22 21 21 20 20 21 21 21 21 21 20 19 19 20 19 17 17 17 16 15 14 14 13 12 12 12 11 11 11 11 11 10 10 10 9 9 8 8 7 6 5 4 4 4 4 4 3 3 3 4 4 4 5 5 5 6 6 7 8 8 9 11 14 16 16 17 17 15 14 13 14 14
28 27 27 27 26 27 26 26 26 25 25 25 24 23 23 23 22 21 21 20 20 21 20 20 19 19 18 17 17 17 16 15 15 14 14 13 13 13 12 12 12 11 11 10 10 10 9 8 8 7 7 6 5 5 4 3 4 3 3 3 3 3 3 3 3 3 4 4 4 3 4 5 4 7 9 10 12 15 17 20 21 21 20 17 15 15 15 15
29 28 28 28 27 27 27 27 27 26 26 25 24 22 23 23 21 20 20 19 18 18 18 17 16 16 15 14 15 14 13 13 13 13 13 12 12 11 11 10 9 9 8 8 8 7 6 6 5 5 4 4 3 4 3 3 4 3 3 3 3 4 6 5 6 6 6 7 5 4 4 4 5 8 12 13 14 16 20 24 24 23 21 19 17 16 15 16
29 28 28 28 27 27 27 27 26 25 25 24 22 22 22 20 18 17 16 15 14 14 14 14 13 13 12 12 12 12 12 11 10 10 10 9 9 8 7 7 6 6 5 5 5 4 4 4 3 4 3 3 4 4 4 4 4 3 3 3 3 5 7 9 10 10 10 10 6 4 4 4 5 9 14 18 17 18 21 22 20 20 21 21 20 17 16 16
27 26 26 25 24 24 24 24 23 22 22 20 18 19 18 15 13 13 12 11 11 11 11 11 10 11 11 10 10 9 9 8 7 7 6 6 6 4 4 4 3 4 3 3 3 3 3 3 4 4 4 4 4 4 5 4 3 3 3 4 5 6 9 11 10 7 9 12 9 7 7 5 4 7 16 23 23 21 22 22 20 20 21 21 22 21 19 19
24 21 20 19 18 17 18 18 17 17 16 14 13 13 11 10 10 9 9 9 9 9 9 9 9 8 8 7 7 6 6 6 5 5 4 4 4 3 3 3 3 4 3 3 4 3 4 4 4 5 4 5 5 4 5 3 3 3 2 4 4 4 6 8 6 5 8 13 11 12 15 11 7 13 21 28 28 25 25 25 24 23 22 21 22 23 22 20
17 15 14 12 12 12 12 11 11 11 10 9 10 10 8 9 8 8 8 7 8 7 7 7 6 6 6 5 5 4 4 4 3 4 3 4 4 3 4 4 4 4 4 5 5 5 6 5 6 6 5 6 5 4 4 3 3 3 2 4 3 3 4 4 8 12 18 24 21 22 24 13 9 22 29 29 28 28 29 29 28 26 24 24 24 23 22 22
11 11 10 9 9 9 9 9 9 8 8 8 9 8 7 8 7 6 6 5 6 5 5 5 4 4 4 4 4 4 4 4 4 4 5 5 5 5 5 5 5 6 6 6 6 6 7 7 7 6 6 5 4 4 4 3 4 3 3 3 2 4 4 3 8 12 18 27 26 30 31 14 11 28 37 37 38 37 36 33 32 31 29 28 27 26 26 26
9 9 10 9 8 9 8 8 8 7 8 7 7 6 6 6 5 5 5 4 5 4 4 4 4 4 4 4 5 5 5 6 6 6 6 6 6 6 6 6 7 7 7 8 8 8 8 7 7 6 6 5 4 4 4 3 4 3 3 4 3 4 4 4 5 4 9 13 16 35 39 15 14 30 35 44 50 47 47 47 44 43 40 39 40 38 36 33
8 9 9 8 8 8 7 7 7 6 6 6 5 5 5 5 4 4 4 4 4 4 4 4 4 5 5 5 6 6 6 7 7 7 7 7 8 8 8 8 9 9 9 9 9 8 8 7 7 7 6 6 5 5 5 4 4 4 4 4 4 4 4 4 4 5 8 6 19 51 51 24 31 47 42 48 55 53 55 56 53 50 44 43 45 47 48 44
8 8 8 8 7 7 6 6 5 5 5 5 5 4 4 4 4 4 4 4 4 5 5 5 6 6 6 6 7 7 7 8 8 9 9 9 10 10 10 10 10 10 10 10 9 9 9 8 8 7 6 6 6 6 6 5 5 5 5 5 5 5 5 5 6 8 9 7 21 43 36 16 27 42 41 48 57 58 61 63 59 52 46 51 57 59 61 59
8 7 7 6 6 5 5 5 5 5 5 5 4 4 4 4 4 5 5 5 6 6 6 6 6 6 7 7 7 8 9 9 10 11 11 11 11 11 12 11 11 11 10 10 10 10 9 9 9 8 8 8 7 6 7 6 6 5 5 6 5 6 5 4 7 10 9 10 17 20 15 7 9 17 23 29 33 42 61 75 67 48 46 63 74 76 81 86
6 6 5 5 5 5 5 5 4 4 4 4 4 5 5 6 6 6 6 7 7 7 7 7 7 7 8 8 9 10 10 11 12 12 12 13 13 13 13 12 12 12 12 12 11 11 11 11 10 9 9 9 7 7 7 7 7 6 6 7 6 6 7 5 7 8 7 9 11 9 10 8 6 10 15 13 10 16 31 46 40 24 27 42 47 47 56 68
5 5 5 5 5 5 4 4 4 4 4 5 6 7 7 7 7 7 7 7 7 8 8 8 9 9 9 10 11 11 12 13 13 14 14 14 14 14 14 14 14 13 14 13 13 13 12 12 11 10 10 8 6 6 6 6 7 7 6 7 7 7 8 7 6 8 10 9 7 8 10 7 6 10 11 9 9 10 12 15 14 11 15 19 17 17 19 23
5 5 5 5 5 4 4 5 5 6 7 7 7 8 7 7 7 7 7 7 8 8 8 9 10 11 11 11 12 13 14 14 14 15 15 15 15 15 15 16 16 15 15 15 15 15 14 13 13 12 12 9 6 6 6 5 6 6 6 7 8 8 9 9 7 7 11 10 6 7 10 8 7 10 10 8 9 11 12 13 11 10 12 12 12 14 13 13
5 5 5 5 6 6 6 7 7 8 7 7 7 7 6 7 7 7 7 7 8 8 9 11 11 12 13 12 13 14 15 16 16 16 16 17 17 17 17 18 18 17 17 17 16 16 16 15 14 15 15 12 9 9 7 5 5 6 7 7 8 9 10 10 8 7 9 10 8 8 9 8 8 9 9 9 8 9 11 11 10 10 10 11 10 11 13 15
5 5 6 6 8 8 8 8 7 7 7 7 7 7 7 7 7 7 8 8 8 9 10 11 12 13 14 14 14 15 16 17 17 18 19 19 19 20 20 20 19 19 19 18 18 17 17 17 17 17 17 15 14 13 11 8 7 7 7 7 9 11 12 12 10 8 8 8 8 9 8 8 9 9 9 9 8 9 10 10 10 10 10 11 11 10 11 11
6 8 8 8 9 9 8 7 7 7 7 7 7 7 7 7 7 7 8 8 9 10 10 12 14 15 16 16 17 18 18 17 17 19 20 21 21 22 22 22 22 21 21 20 20 19 19 20 20 20 19 19 18 17 15 14 13 11 11 12 13 13 13 13 13 12 10 9 9 9 9 9 9 9 10 11 10 10 10 10 10 11 12 12 11 12 12 10
9 9 10 9 9 8 7 7 7 7 7 7 7 7 7 7 7 7 8 9 10 11 13 15 16 17 18 19 19 20 20 21 21 21 21 22 23 23 23 24 24 23 23 22 22 22 22 23 23 22 21 21 21 20 19 19 18 17 17 18 16 15 16 18 20 19 16 12 11 10 11 12 11 11 11 12 13 12 12 12 12 12 13 13 12 13 13 12
10 10 9 8 8 7 7 7 7 7 7 7 7 7 7 7 7 8 9 10 12 14 16 18 19 20 20 20 21 22 22 24 24 24 24 24 25 25 26 27 26 26 26 26 25 26 26 26 26 25 23 22 23 22 19 18 19 21 23 24 23 24 26 26 26 26 23 19 17 15 16 15 14 15 15 15 15 16 15 16 16 15 15 14 14 14 14 15
10 9 8 8 7 7 7 7 7 7 7 7 7 7 7 7 8 9 11 13 16 18 19 20 20 20 19 20 21 22 23 25 25 25 25 26 27 29 30 30 30 29 29 29 29 30 31 30 30 29 26 23 24 23 18 15 17 20 27 34 36 35 34 29 23 24 26 25 23 21 20 19 18 19 19 18 19 21 21 20 20 20 19 18 16 15 15 16
Wind_Speed
29 29 29 28 26 25 23 21 20 19 18 17 17 17 17 16 16 15 16 17 18 19 19 18 18 17 16 15 14 14 13 13 12 12 12 13 14 16 17 16 16 14 13 10 9 7 7 8 7 7 7 7 6 5 4 3 4 5 5 5 4 4 5 6 7 8 8 8 10 10 11 12 12 13 13 14 14 15 16 16 17 17 18 19 19 20 20 21
26 27 27 27 26 26 25 23 22 21 20 19 19 18 18 17 17 17 18 19 19 19 18 18 17 16 15 14 13 13 12 12 12 12 12 13 14 15 14 13 12 11 9 8 7 7 8 8 8 8 8 6 5 4 4 4 4 4 4 3 3 4 5 6 7 7 8 9 10 11 11 12 13 14 15 15 15 16 17 17 18 19 20 20 21 21 22 22
23 24 25 25 25 25 24 24 23 22 21 21 19 19 19 18 19 20 20 20 19 18 18 17 16 14 14 13 13 12 12 12 12 11 11 11 11 11 11 10 9 8 8 7 7 8 9 9 9 8 7 5 5 5 5 4 3 3 3 3 3 4 4 5 6 7 8 9 10 11 13 14 14 15 16 17 17 17 18 19 19 20 21 22 23 23 23 24
20 22 23 23 22 22 22 22 23 23 23 22 20 20 20 20 21 21 20 19 18 18 17 15 14 14 13 13 12 13 13 12 11 10 10 9 9 9 8 8 8 7 7 7 8 10 10 10 9 7 6 6 7 6 5 4 3 2 2 2 3 4 4 4 5 7 9 10 12 12 13 15 16 16 17 18 18 19 19 20 21 21 23 24 24 25 25 25
17 19 20 20 20 20 20 21 22 22 22 22 22 21 21 21 21 20 19 18 18 17 16 15 14 13 13 13 13 13 12 11 11 10 9 8 8 8 8 8 7 8 8 9 10 11 10 9 8 7 7 7 8 7 5 4 2 2 1 2 3 3 4 4 5 7 9 11 13 13 14 15 17 17 18 19 20 20 21 21 22 23 24 25 25 26 26 26
16 17 17 18 18 17 18 18 18 19 19 20 20 20 19 19 18 18 18 18 18 17 15 15 14 13 13 13 13 12 12 11 11 11 9 8 8 8 8 8 9 9 10 10 11 10 9 8 8 8 9 9 8 6 5 3 3 2 2 2 2 3 4 5 6 8 9 11 13 14 15 16 17 18 19 20 21 22 22 22 23 24 25 25 26 27 27 27
17 17 16 16 15 15 15 15 15 16 16 17 17 17 16 17 18 18 18 18 18 16 15 14 13 13 13 13 13 13 12 12 12 11 9 8 8 8 8 9 10 10 10 10 9 8 7 8 9 9 9 8 7 5 4 3 3 2 2 3 3 4 5 6 7 9 10 12 14 15 16 17 18 18 20 21 22 23 23 24 25 25 26 26 27 27 28 28
18 17 16 16 15 15 15 15 15 14 15 15 15 16 17 18 18 18 19 19 18 16 15 13 13 14 14 14 13 13 12 11 11 10 9 8 8 8 9 9 10 10 9 8 7 7 8 9 10 10 8 7 6 4 3 3 2 2 3 4 4 5 6 7 9 10 12 13 15 16 17 18 19 19 20 22 23 24 25 25 26 26 27 27 28 28 28 29
21 20 19 19 18 17 15 14 14 13 13 14 15 17 18 20 20 19 20 19 17 16 14 14 14 15 15 14 13 12 11 10 10 10 9 8 8 9 9 10 10 9 8 7 8 8 10 10 9 9 7 6 5 4 3 3 3 4 4 5 6 7 8 9 11 12 14 15 16 17 18 19 20 20 21 23 24 25 26 26 27 27 28 29 29 29 29 30
24 23 22 21 19 17 16 14 13 12 13 14 15 18 20 22 21 21 21 19 18 16 15 14 14 14 14 13 12 10 8 8 9 9 8 8 8 9 10 10 9 8 7 8 9 9 10 10 9 8 7 6 5 4 4 4 5 6 6 7 8 9 10 12 13 14 15 16 18 18 19 20 21 22 23 23 25 26 26 27 27 28 29 30 30 30 31 31
26 25 23 22 20 19 17 15 13 12 12 12 14 17 21 24 24 23 22 20 18 17 16 15 14 13 12 10 9 8 8 9 9 9 8 8 9 9 9 9 8 8 7 9 11 11 11 10 9 7 6 6 5 5 6 7 7 8 9 9 10 11 12 13 14 15 16 18 19 20 21 22 22 23 24 25 26 27 27 28 28 29 30 30 31 31 32 32
28 27 26 25 23 21 20 18 17 16 14 13 14 16 21 26 27 25 23 21 19 18 17 15 13 11 10 8 9 10 10 9 9 9 9 9 9 9 8 7 7 8 9 10 11 11 10 9 7 6 6 7 7 7 8 9 9 10 10 11 12 12 13 15 16 17 18 19 20 21 22 23 24 25 27 27 28 29 29 29 29 30 31 31 31 32 32 32
31 30 29 27 26 25 24 23 23 23 23 23 23 24 27 29 29 26 23 21 20 18 16 14 12 10 9 9 10 11 11 9 9 9 9 9 8 8 7 7 8 9 10 10 10 9 8 7 6 6 7 7 8 9 9 10 11 11 12 13 14 14 15 16 18 18 19 20 21 23 24 26 27 27 29 30 30 30 30 31 31 31 31 32 32 32 33 33
33 32 31 30 29 28 27 27 28 29 31 32 33 33 32 31 28 25 22 20 18 16 14 12 11 11 11 11 11 11 11 10 9 9 8 7 6 6 6 8 9 9 10 9 8 7 7 6 6 6 7 7 9 10 10 11 12 13 14 15 15 15 16 18 19 20 21 23 24 25 27 29 30 30 30 31 32 32 31 32 32 31 32 32 33 33 33 33
33 33 32 32 32 32 32 32 33 34 36 37 37 35 33 29 26 23 21 19 17 15 14 14 14 14 13 13 12 12 11 10 9 8 6 5 4 4 6 8 8 8 8 8 7 7 6 6 6 6 7 8 9 10 11 12 13 14 15 16 17 18 18 20 21 22 23 25 27 28 28 30 32 32 32 33 33 33 32 33 33 33 33 33 33 33 33 33
34 34 34 34 35 35 36 36 37 38 38 38 38 36 33 30 26 24 22 20 19 18 17 17 16 16 15 14 13 12 10 9 7 6 5 4 4 4 6 7 7 7 7 7 7 6 6 6 6 7 8 9 10 12 12 13 15 16 17 18 19 20 21 22 23 24 26 27 28 30 31 31 33 34 34 34 34 34 33 34 34 34 34 34 34 33 33 34
34 35 36 37 38 38 39 40 40 40 40 39 38 37 35 33 30 27 25 24 23 22 21 20 18 17 16 14 13 12 10 9 7 5 4 3 4 5 6 7 7 7 7 7 6 6 6 6 7 8 9 11 12 14 14 16 17 18 19 20 21 22 24 24 25 27 28 29 30 32 32 33 34 35 36 36 35 34 34 34 35 35 35 35 35 34 34 34
37 38 39 40 40 40 41 41 41 41 41 40 39 38 36 34 32 30 28 27 25 24 22 21 19 18 16 14 13 11 9 8 5 4 3 3 5 5 6 6 6 6 6 6 6 6 7 8 9 10 11 13 15 16 17 18 19 20 21 22 23 25 26 27 28 29 30 30 32 34 33 34 36 36 36 37 36 34 34 35 35 36 37 36 36 35 34 35
39 40 41 41 41 41 41 41 41 40 40 39 39 38 36 34 32 30 28 27 25 23 21 20 18 16 15 13 12 10 7 6 4 3 3 3 4 4 4 5 4 5 5 6 8 9 9 10 12 13 14 16 17 19 20 21 21 22 23 25 26 27 28 29 30 31 33 32 33 36 35 34 37 38 37 38 37 35 35 35 35 37 38 37 37 36 36 36
39 40 40 40 39 39 39 38 38 37 36 36 35 35 35 33 31 28 26 24 22 20 19 18 16 15 13 12 10 8 6 5 4 3 3 3 2 2 2 3 4 5 6 8 9 10 11 13 14 15 17 17 19 21 22 22 23 24 25 27 28 29 30 31 32 33 35 35 34 37 38 35 36 39 38 38 37 35 36 36 35 37 38 38 38 38 38 38
37 37 37 36 35 35 34 34 34 33 33 32 32 32 32 31 29 28 24 21 19 18 17 16 15 13 13 12 10 8 6 5 4 4 3 2 1 1 2 3 4 6 7 9 11 12 13 15 16 17 18 19 21 22 23 24 25 26 28 29 30 31 31 32 34 35 37 37 36 38 40 35 35 39 39 40 38 35 36 37 36 38 39 40 40 39 39 40
35 34 34 33 32 31 31 30 30 30 30 29 29 29 30 28 27 27 23 19 18 17 17 16 15 13 13 12 11 10 8 6 6 5 5 4 4 4 4 5 7 9 11 12 13 14 16 17 18 19 20 21 23 24 25 26 27 29 30 31 32 33 34 35 36 38 39 40 39 39 41 36 34 36 38 41 40 36 37 38 38 39 40 42 42 41 41 41
33 32 31 30 29 28 27 26 26 27 27 28 28 28 28 27 27 25 22 19 18 17 16 16 15 14 14 13 13 12 10 9 9 8 7 6 7 7 8 9 10 12 13 13 15 16 17 18 19 20 22 23 25 26 27 29 30 31 32 33 34 35 37 38 38 39 40 42 41 41 44 40 35 34 34 39 41 39 39 39 39 40 41 43 44 43 42 42
31 30 29 27 26 26 25 23 24 25 27 28 29 28 27 27 25 23 20 19 19 18 17 17 16 15 14 13 13 12 11 11 11 9 9 8 9 10 10 10 11 12 13 14 15 17 18 19 20 21 23 24 26 27 29 30 31 32 33 34 36 37 38 40 40 40 41 42 42 42 44 44 40 35 34 39 42 42 41 42 41 41 42 44 46 45 44 43
29 28 27 26 26 26 26 25 25 26 28 28 28 27 26 25 24 22 20 19 19 18 18 18 17 15 14 13 12 12 11 12 12 11 11 10 10 11 11 10 11 12 14 15 16 18 19 20 21 23 24 25 27 29 30 31 32 34 35 36 37 38 39 40 42 43 43 44 44 43 45 46 44 40 37 40 44 44 45 45 44 44 44 46 47 47 46 45
28 28 27 27 27 26 27 26 26 27 28 27 26 24 23 23 23 22 20 20 21 20 18 18 17 16 15 14 13 13 12 12 12 12 12 12 11 12 12 11 12 14 15 16 17 19 20 22 23 25 27 28 30 31 32 34 35 37 37 38 40 41 42 42 44 45 45 46 46 46 47 49 47 42 41 44 47 47 48 47 46 46 47 49 49 49 48 46
28 28 28 28 27 27 27 27 27 27 27 26 24 23 23 22 21 20 19 19 21 20 19 18 17 16 16 15 14 12 12 12 12 11 11 12 12 13 13 13 14 16 17 19 20 22 23 25 27 28 30 31 33 34 35 37 38 39 40 41 42 43 44 44 45 46 46 47 47 46 48 51 50 45 45 49 50 50 50 49 49 48 50 52 51 50 49 48
27 27 28 28 27 27 27 27 27 26 26 25 23 22 22 21 20 19 17 18 18 17 17 17 16 16 15 14 13 12 11 12 11 12 12 13 15 16 16 17 19 20 21 23 24 25 27 29 30 32 33 34 35 36 38 39 40 40 41 42 43 44 45 45 47 47 48 49 49 49 50 52 52 49 49 52 53 52 51 51 51 51 52 53 51 49 50 51
27 26 26 26 26 26 26 25 25 24 24 23 22 21 20 19 18 17 16 16 16 15 15 15 15 15 14 13 13 12 12 13 13 15 15 16 19 20 20 21 22 23 25 26 27 28 30 31 33 34 34 35 36 37 39 39 40 41 42 43 44 44 46 47 48 49 50 51 51 51 51 54 55 51 50 53 53 52 52 52 52 52 52 51 49 50 52 52
26 26 25 25 24 24 23 23 22 22 21 20 20 19 18 18 17 15 14 15 15 15 16 16 15 15 14 13 13 14 15 16 17 18 18 19 21 22 22 23 25 25 26 27 29 30 31 32 33 34 35 36 37 39 40 41 42 44 45 46 47 48 49 49 50 51 52 53 52 53 53 56 59 54 51 52 52 52 53 52 51 50 49 49 50 53 53 53
25 25 24 23 23 22 21 20 20 19 18 18 18 17 17 17 16 15 15 14 14 15 16 16 16 15 16 16 16 16 17 18 19 19 20 21 23 23 24 25 26 26 27 27 29 31 32 33 35 36 37 38 39 41 42 43 45 46 48 50 51 52 53 54 54 55 56 56 56 56 56 57 60 57 54 52 52 55 55 51 48 48 49 50 52 54 54 54
24 23 22 22 21 20 19 18 18 17 16 16 16 16 16 15 14 15 16 16 15 16 16 16 16 15 17 18 17 17 18 19 20 21 22 23 24 25 25 26 27 28 29 30 30 31 33 35 36 37 39 40 42 43 44 45 46 48 51 53 54 55 56 57 56 56 57 57 58 58 58 58 59 58 56 54 54 55 53 48 48 49 50 51 53 54 54 54
22 21 21 20 19 18 17 17 17 15 15 15 14 14 15 14 13 14 16 16 16 16 16 16 17 17 18 18 18 19 20 21 22 23 24 25 26 27 28 29 30 31 32 33 34 34 35 36 38 40 40 42 43 44 45 47 48 51 53 54 56 57 57 58 57 57 57 58 59 59 60 60 59 58 57 55 54 53 49 47 49 50 51 52 53 53 54 54
19 19 18 17 17 16 15 15 14 13 13 13 12 15 15 13 14 15 15 16 17 17 17 17 18 18 19 20 20 21 22 23 24 25 26 27 28 30 31 32 33 34 35 36 37 38 38 38 38 40 41 42 44 46 48 50 52 53 54 56 56 55 55 56 56 56 57 57 58 59 60 60 59 57 55 54 53 51 47 47 49 52 54 54 54 54 53 53
16 16 16 15 14 14 13 13 12 12 12 11 13 16 14 13 14 15 16 17 18 18 18 18 19 20 20 21 22 23 24 26 27 28 29 30 31 32 33 34 34 35 36 36 37 38 38 38 39 41 43 44 46 48 51 54 54 55 55 56 55 53 53 54 53 54 56 58 59 60 60 60 58 56 54 52 51 49 48 51 53 54 54 55 56 56 53 51
14 15 14 14 13 12 12 11 11 12 12 11 15 16 13 14 16 17 17 18 18 19 19 19 20 21 22 23 24 25 27 28 29 30 31 32 33 33 33 34 34 34 35 36 37 38 38 39 41 43 45 46 48 50 53 54 55 55 55 53 52 52 52 53 55 57 58 59 61 60 61 60 58 55 54 52 49 48 52 55 55 53 53 55 56 56 54 51
13 15 15 13 13 12 12 11 12 13 12 13 16 15 14 16 17 18 19 19 19 20 20 21 22 23 24 25 27 28 29 30 30 31 32 32 32 32 32 33 33 34 35 36 38 39 40 40 42 45 47 48 50 51 52 53 53 53 52 51 51 52 51 54 57 59 58 59 60 58 57 58 55 52 52 50 48 49 50 52 53 53 53 54 55 56 55 53
13 16 16 14 13 14 13 13 13 13 13 15 16 16 16 18 18 19 19 20 20 21 22 23 24 25 26 27 27 28 29 30 30 30 31 31 31 32 32 33 34 35 36 38 39 40 42 43 44 47 49 50 51 51 51 51 51 51 50 49 50 51 52 53 54 56 56 57 58 56 54 53 50 47 48 48 47 48 48 48 52 53 53 54 54 55 56 55
14 16 15 14 13 14 14 14 13 13 15 16 16 17 18 19 19 20 20 21 22 22 23 24 24 25 26 27 27 28 29 30 30 31 31 31 32 32 33 34 35 36 37 39 40 42 44 46 46 47 48 50 50 50 50 51 51 51 50 50 50 51 52 52 51 52 53 55 57 55 53 52 47 43 46 47 45 46 47 48 51 52 51 52 53 54 56 56
15 16 14 13 13 13 14 14 14 16 17 16 16 18 19 20 20 21 21 22 22 22 23 24 25 26 27 28 29 30 30 31 31 32 32 32 33 33 34 34 35 37 38 39 41 42 44 46 46 45 47 48 49 48 49 50 50 49 49 50 51 52 54 55 54 52 51 54 56 54 54 52 45 41 44 45 44 45 46 49 50 51 50 50 51 53 55 56
14 14 13 13 14 15 15 15 16 17 17 17 18 19 19 20 20 20 21 21 22 23 25 25 26 27 28 29 30 31 31 32 32 33 33 33 34 34 34 35 36 37 39 40 42 43 44 45 45 45 45 46 46 47 48 50 49 48 49 48 50 54 55 56 56 53 51 53 53 53 56 51 43 39 43 44 45 46 47 49 51 52 51 51 51 52 53 55
14 14 13 14 16 16 16 16 17 17 17 18 18 19 19 19 20 20 21 22 24 26 27 27 29 29 30 31 31 32 32 33 33 33 33 33 34 34 35 36 37 39 40 41 42 43 44 44 43 43 44 44 46 47 49 50 49 48 48 48 50 52 52 53 56 53 51 51 50 52 55 50 43 41 44 45 46 47 47 49 52 52 51 51 52 51 52 54
14 13 13 15 16 16 17 17 17 17 17 17 17 18 19 20 21 22 24 25 26 27 28 29 30 31 32 32 32 33 33 33 33 33 33 33 34 35 36 37 38 39 40 41 42 43 44 44 43 43 43 44 46 48 50 51 50 49 48 47 49 50 49 50 53 53 50 49 49 52 55 52 47 45 47 48 47 46 46 48 52 53 52 52 53 53 54 55
13 14 15 15 16 17 16 16 15 15 15 16 17 19 20 22 23 24 25 26 27 28 30 31 32 33 34 34 34 34 33 33 33 33 33 34 35 36 37 38 39 40 41 41 42 43 43 44 45 45 45 45 45 46 49 51 51 49 47 46 48 49 49 50 51 53 50 47 49 53 54 53 50 47 47 49 48 47 46 48 52 53 53 53 54 54 54 55
14 15 15 15 16 15 13 13 14 15 16 17 19 21 22 23 23 24 25 27 28 31 33 35 36 37 37 37 35 34 34 34 33 33 34 35 35 36 37 39 39 40 41 42 42 42 43 43 44 45 46 46 45 44 45 48 49 47 44 44 46 50 52 51 51 52 50 47 49 51 52 52 50 46 47 49 50 50 49 49 51 52 53 54 55 55 55 55
14 14 13 14 15 13 12 13 16 17 18 20 20 21 22 22 24 25 27 29 32 34 36 37 38 38 38 37 36 35 34 34 34 34 35 35 36 37 38 39 40 41 42 43 43 43 43 43 43 44 44 44 44 44 43 46 48 46 43 42 45 49 53 53 51 50 50 50 49 47 48 51 49 46 48 50 52 52 52 52 53 53 53 54 55 55 55 54
14 13 12 12 13 13 14 16 17 18 19 20 20 21 23 24 27 29 31 33 35 37 37 38 38 38 38 37 35 34 33 34 34 34 35 36 37 38 39 40 41 42 43 43 44 44 44 44 43 44 44 42 43 45 44 45 47 46 45 44 46 50 54 54 52 50 50 52 52 47 47 50 49 46 48 51 52 52 52 52 53 53 53 54 54 54 54 54
12 11 11 11 13 15 15 16 17 18 20 21 23 24 26 28 30 32 34 35 37 38 38 38 38 38 37 35 34 33 32 33 33 34 35 36 37 38 40 41 41 43 44 44 44 45 45 45 44 45 44 42 43 45 45 46 47 47 47 48 49 51 53 52 51 50 51 54 54 52 50 50 49 48 49 50 52 52 52 53 54 54 53 53 54 54 54 53
11 11 11 12 13 14 15 16 18 20 22 24 26 27 29 31 32 34 36 37 37 38 38 38 38 37 36 34 34 33 33 34 34 35 36 37 38 40 41 43 43 44 45 45 46 46 46 45 46 47 46 44 45 47 48 49 50 49 50 51 52 52 51 50 51 52 53 54 54 54 54 52 49 50 51 51 52 54 54 54 55 55 55 55 55 56 55 53
10 11 11 11 13 14 16 19 21 23 25 27 28 29 31 32 34 35 36 37 38 38 38 38 37 36 35 34 34 34 35 35 36 37 38 39 40 42 44 44 45 45 46 46 47 47 47 47 48 50 49 48 49 51 52 52 53 52 51 51 53 53 51 51 52 53 54 54 53 54 56 54 49 50 52 51 52 54 55 55 56 56 56 57 57 57 56 54
9 10 11 13 14 16 19 22 24 26 27 29 30 31 33 34 36 36 37 37 38 38 38 37 35 34 34 33 33 34 34 35 37 38 39 41 42 44 45 46 46 46 47 47 47 47 48 49 50 52 54 53 53 54 55 55 54 52 50 51 54 54 53 53 54 54 54 54 53 53 56 55 52 52 53 53 53 54 54 56 57 57 57 58 58 57 56 55
9 11 13 16 18 20 22 25 27 28 29 31 32 33 35 36 37 37 37 37 38 38 37 36 35 34 33 33 33 34 35 36 37 39 40 42 43 44 45 46 46 47 47 48 48 48 50 52 53 55 58 58 56 57 59 59 57 54 51 51 54 55 55 56 55 54 55 55 53 54 57 57 55 56 57 56 56 56 55 57 58 58 58 58 58 56 55 55
Wind_Direction
214 213 211 210 208 206 205 203 202 202 204 206 210 214 219 221 224 229 231 230 229 231 233 234 235 235 236 235 231 230 233 233 231 229 222 217 211 205 205 208 214 222 229 233 234 230 227 221 213 203 190 185 185 191 199 207 226 242 260 273 297 321 337 345 351 353 355 359 358 355 353 353 352 349 349 348 349 351 351 351 350 349 349 348 346 343 342 341
215 214 213 212 211 211 210 207 206 206 206 208 212 216 220 223 227 231 232 230 230 231 231 230 229 229 228 226 223 224 225 223 220 217 212 208 206 205 209 216 222 227 227 227 224 216 210 202 190 182 181 184 184 186 199 217 241 249 265 289 319 337 349 354 357 2 4 4 1 357 354 353 353 351 351 350 349 351 353 353 352 351 351 350 350 348 347 346
212 212 212 212 211 212 211 210 209 209 209 210 214 217 221 224 229 232 230 228 228 226 223 221 221 219 218 217 215 213 212 211 210 207 204 205 207 210 215 220 221 218 214 211 206 199 193 184 176 175 179 180 183 195 210 224 246 258 286 315 331 344 350 354 360 6 6 2 356 353 351 351 351 350 350 349 348 348 350 352 352 351 351 351 351 350 349 348
203 205 206 207 207 207 207 207 208 209 210 211 214 217 220 224 228 229 226 223 220 216 212 209 209 208 208 206 203 201 201 200 200 197 196 200 205 209 210 210 208 203 198 193 187 182 178 173 170 173 176 180 192 207 219 225 242 265 306 334 341 343 341 345 350 357 0 358 351 346 344 347 348 347 348 348 347 347 348 349 350 350 350 350 351 351 350 348
190 193 194 195 196 197 200 203 206 209 210 211 214 217 220 224 224 222 217 213 209 204 199 198 199 198 196 193 191 191 190 190 188 187 188 193 199 202 201 200 196 187 182 179 175 171 169 168 167 173 183 191 203 214 223 227 242 270 302 338 341 336 329 332 336 340 348 351 349 343 339 341 343 344 344 345 345 345 345 346 347 348 348 349 350 351 350 348
168 172 175 179 184 189 194 199 202 206 208 210 213 215 216 216 213 209 205 201 197 192 188 191 189 185 182 181 181 179 178 179 180 182 184 189 196 198 196 190 182 175 172 169 166 164 164 166 172 182 194 203 213 222 227 227 239 263 279 305 319 319 323 331 334 336 339 342 344 341 337 337 339 340 341 342 342 343 343 343 345 346 346 348 349 349 349 347
142 149 157 164 172 177 181 185 190 195 199 201 202 201 199 198 198 196 192 189 186 181 181 183 176 170 170 170 170 169 169 174 178 180 183 190 197 195 187 177 170 164 160 159 157 159 164 173 184 193 203 211 220 224 226 230 240 260 271 282 296 306 319 327 329 331 332 332 334 335 334 334 336 337 338 339 340 340 341 341 342 343 344 345 346 347 346 346
129 135 142 148 153 157 161 166 172 179 183 185 186 185 185 188 189 187 183 181 177 174 175 171 163 161 162 161 161 162 166 173 180 184 185 190 190 184 174 164 156 150 148 150 151 161 174 185 195 203 211 215 217 218 222 237 248 261 272 282 296 305 313 319 321 323 324 325 326 328 329 330 333 334 336 337 338 339 339 340 340 341 342 342 343 344 343 343
122 126 129 133 136 140 145 152 159 167 174 178 182 184 185 186 185 181 177 175 170 167 167 160 155 157 157 156 156 160 165 173 183 187 183 181 175 166 157 146 140 139 140 148 158 172 187 197 205 210 214 215 219 227 234 249 256 265 276 287 299 303 307 311 313 315 318 320 322 324 326 327 329 331 333 335 336 337 338 338 338 339 340 340 340 340 340 340
118 120 123 125 128 132 136 142 150 160 170 178 182 185 186 184 180 174 170 168 164 162 158 153 153 156 157 155 155 158 163 168 176 178 172 165 158 148 139 133 133 139 145 160 176 190 201 208 211 211 214 220 232 239 245 259 265 273 283 289 296 301 305 308 310 312 313 316 320 322 324 326 328 330 331 332 334 336 337 337 337 337 338 339 338 337 337 337
116 118 119 120 121 122 124 127 131 140 153 166 175 181 182 179 172 165 162 161 158 155 152 152 154 154 153 151 154 155 156 161 165 163 154 146 141 134 131 132 137 152 163 179 193 203 210 212 212 214 223 229 239 247 255 267 272 278 286 290 296 301 306 308 311 313 313 315 319 322 323 325 328 329 330 331 332 333 335 335 335 336 337 337 336 335 334 334
112 112 111 111 110 110 111 112 114 118 125 135 148 158 163 164 161 156 155 155 152 150 150 152 152 151 150 153 156 152 150 154 154 147 140 136 134 133 135 142 155 172 185 197 206 211 214 215 217 227 235 238 251 259 264 271 276 281 287 292 298 302 305 308 310 312 313 315 318 321 323 325 327 328 329 331 331 331 332 333 333 334 335 335 334 333 332 331
106 105 105 106 107 109 111 111 111 111 112 112 114 119 131 142 147 148 149 149 148 148 149 150 150 149 148 149 149 143 139 140 137 131 130 129 131 138 148 162 176 190 200 209 215 218 220 224 231 241 246 251 261 265 269 274 279 287 292 295 300 303 305 307 309 310 312 315 317 320 323 324 326 327 327 328 329 329 329 330 331 332 333 333 332 331 330 329
104 105 106 107 109 110 109 108 106 103 102 101 101 105 115 128 135 139 141 142 141 141 141 142 140 137 134 132 130 125 122 121 120 118 119 123 134 149 166 180 191 204 214 220 225 226 229 235 239 249 257 262 268 272 277 281 286 293 297 299 302 305 306 307 308 309 311 314 316 318 321 323 324 325 325 326 326 327 327 328 329 328 329 330 330 329 328 327
106 106 107 107 107 106 103 100 97 94 93 94 96 100 108 118 123 126 127 127 126 125 125 124 121 118 115 113 110 107 104 104 105 107 113 124 143 165 187 197 206 219 227 230 234 235 236 240 248 262 270 273 278 282 286 290 295 300 301 303 306 306 307 306 307 309 310 313 314 317 320 321 321 323 323 324 324 324 325 325 326 326 326 327 327 327 326 325
107 106 106 106 105 103 101 98 95 93 92 92 94 97 102 107 110 113 113 113 112 111 110 108 106 103 102 101 99 96 92 92 92 99 111 128 159 186 206 212 220 231 238 241 242 242 243 250 264 275 282 287 290 292 294 298 303 306 306 306 307 306 305 305 306 308 309 311 313 315 317 318 318 320 320 321 322 322 322 323 323 323 323 324 325 325 324 323
105 105 104 103 102 101 100 98 96 95 93 93 94 96 98 100 103 104 105 105 104 103 101 99 96 94 95 95 93 92 92 91 90 100 115 150 187 205 219 225 235 244 252 254 252 255 259 267 277 284 292 296 298 299 300 302 305 307 307 306 305 305 304 304 305 306 307 309 311 312 315 315 315 317 317 318 319 319 318 319 320 320 321 322 322 322 321 321
103 102 101 100 99 98 97 96 96 95 95 95 94 94 94 95 97 98 99 98 97 97 96 95 92 89 90 92 93 94 93 90 91 110 139 191 211 224 235 241 252 260 267 272 273 277 278 283 289 292 298 303 304 304 302 304 305 305 306 304 303 303 303 303 304 304 305 308 309 310 313 313 313 314 314 315 316 315 315 317 318 318 319 320 320 320 318 317
97 96 95 93 92 91 90 90 91 92 93 94 94 93 92 91 90 90 91 91 91 91 92 93 92 89 88 88 89 89 91 98 108 142 187 215 225 238 249 257 268 279 289 293 292 289 288 291 295 298 304 309 309 307 305 305 306 305 305 304 303 303 302 303 304 303 303 306 308 308 310 312 310 311 312 312 313 313 312 314 316 316 317 318 318 317 315 314
88 87 87 86 86 86 87 88 89 89 90 91 91 92 91 88 86 84 83 83 85 87 90 92 90 88 86 85 87 91 103 125 143 164 185 197 212 240 268 281 297 307 308 308 306 299 296 300 304 306 308 310 308 306 306 306 306 305 304 303 303 302 302 302 303 303 302 304 306 306 308 310 308 309 310 310 310 311 311 313 315 315 316 316 316 315 313 312
85 85 85 85 86 87 88 90 90 90 90 90 90 90 89 88 88 85 81 82 84 85 86 87 86 86 88 90 95 98 105 120 128 132 128 122 116 2 340 322 323 330 327 324 323 316 312 312 312 310 308 307 306 307 307 306 306 305 304 303 302 301 301 301 301 301 301 301 303 304 306 308 306 307 309 307 308 310 310 312 314 314 314 314 313 313 312 311
85 86 86 86 86 87 88 91 93 94 95 95 93 91 88 87 86 83 81 83 85 84 84 87 89 91 94 98 98 92 90 94 94 86 73 58 37 12 356 350 346 343 338 332 328 322 317 314 312 308 306 306 307 308 307 306 305 304 303 302 301 301 300 300 300 300 300 300 301 301 303 306 306 306 307 306 307 309 310 311 312 312 313 312 311 312 311 310
83 83 83 83 84 85 88 93 97 100 100 98 93 88 86 83 80 78 81 86 89 89 90 90 91 92 94 95 92 86 80 78 74 64 52 37 24 10 359 357 349 341 335 326 321 319 315 313 312 310 307 307 307 307 306 305 304 304 304 303 302 301 300 299 298 298 298 298 300 301 301 304 306 305 304 303 305 308 310 311 311 311 311 309 309 310 310 309
84 84 85 85 86 88 91 94 97 98 96 92 87 83 82 82 82 81 84 88 91 91 89 88 87 89 89 86 85 83 74 67 60 53 43 28 18 8 358 351 340 332 327 322 319 318 315 314 313 310 308 306 306 306 305 304 304 304 303 302 301 300 299 298 297 297 297 298 300 301 300 302 305 306 305 304 305 308 310 310 309 308 308 307 307 308 309 308
86 87 86 87 87 88 89 89 89 89 87 84 82 81 82 82 84 84 83 84 85 86 85 86 85 85 83 80 78 73 64 56 49 43 33 22 13 3 354 344 336 331 327 324 320 316 314 313 312 310 308 306 305 305 305 305 305 304 303 302 300 300 300 299 299 299 299 299 300 303 302 300 303 309 309 307 308 309 310 309 308 307 306 305 306 307 308 307
82 81 80 81 81 82 81 80 80 81 79 78 79 80 81 80 79 79 78 78 78 77 77 78 79 76 72 69 64 57 51 46 39 32 24 15 5 357 350 341 335 331 327 323 318 316 315 313 313 312 311 310 309 309 308 308 307 306 306 305 304 304 304 304 303 303 303 303 304 307 306 303 305 310 310 308 309 310 309 308 307 307 306 305 306 307 308 307
78 76 75 75 76 75 74 75 75 75 75 76 77 79 77 75 75 74 74 73 73 71 69 69 68 64 60 56 52 46 39 34 27 19 12 4 356 347 339 335 330 326 326 323 319 318 317 316 316 315 314 313 313 313 312 312 311 311 311 310 310 309 308 308 307 306 306 305 306 308 308 306 308 311 310 308 310 311 310 309 309 308 307 306 308 308 308 307
75 74 73 73 74 73 72 72 72 72 72 74 77 77 76 72 71 69 68 68 66 64 61 59 56 51 48 45 40 33 25 18 11 3 357 350 346 339 333 333 330 326 325 323 322 321 320 319 318 317 317 317 317 317 316 316 315 315 315 314 314 312 312 311 310 310 309 308 309 310 309 307 309 313 312 310 311 311 310 309 309 309 308 308 308 308 308 307
73 73 72 72 73 72 71 70 70 71 71 73 73 72 70 67 63 58 56 58 55 50 47 44 42 38 34 30 23 16 10 2 356 352 348 343 341 338 333 332 329 326 326 324 324 324 322 321 319 319 319 319 319 319 318 318 317 317 316 315 315 314 314 313 312 312 311 310 310 310 309 308 309 313 314 312 312 311 309 309 309 309 308 306 306 306 306 306
72 72 71 72 72 72 71 69 68 67 67 68 66 63 59 55 52 45 41 43 40 35 33 30 28 26 19 12 5 2 359 354 349 346 342 339 336 334 330 329 327 326 327 326 325 324 322 321 320 320 320 320 320 319 319 319 319 318 317 316 315 314 313 312 312 312 310 310 310 310 310 309 309 312 313 312 312 310 309 309 309 308 305 303 304 305 305 305
74 73 72 72 72 71 70 68 66 63 63 63 60 55 49 42 38 34 29 27 25 24 24 20 16 13 7 0 356 352 350 347 344 339 336 333 332 331 329 328 327 325 324 324 324 325 323 322 322 321 320 319 318 318 319 319 319 319 319 317 316 315 314 313 313 312 311 311 310 310 310 308 309 311 311 310 309 308 309 310 308 305 302 302 303 304 305 305
73 73 72 72 72 71 69 66 63 61 57 56 51 46 43 34 25 24 23 18 17 17 15 12 8 4 358 354 350 345 342 340 338 335 332 331 330 329 328 326 325 323 323 322 322 324 323 321 321 320 319 319 318 319 320 321 322 322 322 321 320 319 317 316 316 313 312 310 309 309 308 307 309 310 308 307 307 307 309 309 305 301 300 301 302 304 304 304
70 70 70 70 69 68 66 63 60 57 52 48 41 38 38 25 12 17 18 15 15 12 8 5 1 356 352 348 344 340 338 336 335 333 331 330 329 328 327 326 325 324 323 322 321 321 321 321 320 319 320 321 321 323 324 324 325 325 325 323 322 320 317 316 315 312 310 308 308 308 307 306 307 306 305 306 306 307 309 307 302 300 300 301 302 304 304 305
67 67 67 65 64 63 60 58 54 49 46 39 31 34 31 14 6 13 14 11 10 6 2 359 355 351 347 343 340 338 336 335 334 332 330 330 329 328 327 326 325 325 323 322 322 321 322 324 324 324 324 325 326 327 327 326 325 325 324 322 320 318 316 315 314 311 309 306 305 305 304 304 305 304 305 305 304 306 307 302 299 300 302 302 303 305 305 306
64 63 62 59 57 56 53 50 44 40 36 25 23 27 19 3 7 11 9 7 5 1 358 354 350 347 344 341 339 336 335 333 332 331 330 329 328 328 328 327 327 327 325 325 325 325 325 328 329 329 328 327 327 327 326 325 324 323 322 320 319 317 316 314 312 310 308 305 304 303 302 302 303 305 307 309 308 307 303 300 301 303 303 303 304 305 307 307
60 58 55 51 47 46 44 40 35 31 23 15 21 20 6 2 9 9 6 5 1 357 354 350 346 344 341 338 336 334 333 332 332 331 331 331 330 331 331 331 331 331 329 329 328 327 327 329 330 328 327 326 326 326 326 326 326 325 324 322 320 319 317 313 311 310 308 307 307 307 307 305 306 308 310 311 309 305 303 304 304 304 303 303 304 306 307 307
57 54 48 43 38 37 37 33 32 28 17 18 22 13 2 6 7 5 3 360 356 352 349 346 343 340 338 336 334 334 333 333 334 334 334 334 334 334 334 334 334 331 330 329 328 327 327 327 327 326 326 326 326 327 327 328 328 327 327 325 322 319 317 315 314 314 313 312 312 313 313 312 316 316 313 311 310 308 308 306 303 302 302 302 304 305 306 306
56 53 45 39 38 38 35 32 34 28 18 21 18 5 2 4 1 359 357 353 351 348 345 343 342 339 339 338 337 336 337 338 339 338 338 338 337 337 335 334 332 329 329 328 327 328 327 327 327 326 326 327 328 329 330 331 331 331 330 328 325 323 322 321 321 320 319 317 317 318 318 319 324 322 315 313 314 312 310 306 302 302 303 303 304 305 306 308
54 52 42 35 36 36 32 26 24 19 15 16 7 357 357 357 353 352 350 348 347 346 344 344 344 343 343 342 342 342 341 341 341 340 339 338 336 335 333 332 330 329 329 329 329 329 329 329 329 329 329 329 330 332 334 336 336 334 332 329 328 329 328 327 327 325 324 321 321 322 321 325 330 324 316 316 316 314 311 307 305 305 306 307 308 309 309 310
49 47 37 26 23 25 21 7 3 9 10 5 356 351 352 350 349 348 347 348 348 347 349 349 349 349 348 346 345 344 343 341 339 338 337 336 334 333 332 331 331 330 331 330 330 330 329 330 330 331 331 332 334 337 339 340 339 337 335 334 334 334 333 332 333 333 331 327 326 323 320 328 336 326 316 316 316 315 313 310 309 308 309 311 312 313 313 312
40 36 25 15 12 14 7 355 358 5 1 353 349 348 348 349 350 351 352 353 354 354 355 354 352 350 347 346 343 341 340 338 336 336 335 334 333 333 332 332 332 331 331 331 330 330 330 330 331 332 333 334 337 339 340 340 340 339 339 340 340 340 337 337 337 337 336 333 331 323 318 331 342 329 319 318 316 316 314 310 309 310 313 314 314 313 312 312
29 24 11 6 7 3 356 355 0 359 351 348 349 350 352 356 358 359 360 360 359 358 356 353 351 348 346 344 341 339 338 337 336 336 335 334 334 334 334 333 332 331 331 330 330 331 331 331 332 333 334 336 336 336 337 340 340 340 340 340 342 341 339 338 337 334 334 335 331 321 320 331 340 331 325 325 321 319 316 309 308 313 318 318 315 312 310 308
19 9 359 1 358 351 352 357 358 354 351 352 354 358 3 4 4 3 3 2 0 358 355 353 351 349 347 345 342 340 339 337 337 336 335 335 335 335 333 332 331 330 330 330 331 332 331 331 331 332 334 336 336 335 336 340 340 338 338 338 340 340 337 338 337 331 331 334 329 321 323 332 336 332 329 328 324 323 319 312 311 317 321 319 315 313 310 309
6 356 356 355 348 349 358 0 359 359 359 0 5 8 8 6 5 4 3 2 0 358 356 355 353 351 349 346 343 341 339 338 337 336 336 336 335 334 332 331 331 330 331 331 332 333 333 333 334 334 335 337 337 335 335 338 339 338 337 338 338 335 333 335 336 331 330 333 330 325 326 334 338 334 329 327 324 323 321 317 316 318 319 317 314 313 312 310
357 354 355 350 349 1 8 3 4 9 6 9 12 10 8 6 5 3 2 0 359 357 356 355 353 352 350 347 344 342 340 339 338 337 337 336 335 334 332 332 332 332 333 333 333 335 334 335 337 338 340 340 337 335 333 333 334 334 335 336 333 331 331 331 330 329 329 330 332 331 328 334 341 335 328 328 325 323 322 319 319 319 317 316 314 314 313 312
0 357 356 357 3 14 14 8 12 14 12 14 14 8 6 3 1 0 359 357 357 356 354 353 352 351 349 346 344 342 340 339 338 337 337 336 335 334 333 333 332 332 333 333 333 334 334 335 336 337 340 338 334 332 329 326 328 329 330 331 328 326 328 328 326 326 325 324 330 333 327 330 337 334 329 330 327 325 324 322 323 324 321 319 318 317 316 315
7 2 2 8 16 20 18 17 18 15 13 14 11 5 2 359 358 358 356 354 353 352 351 350 349 348 346 344 342 340 338 338 337 336 336 335 335 334 333 333 333 332 332 332 332 332 332 332 332 333 336 333 329 329 326 322 323 325 326 326 324 322 324 325 323 323 322 320 325 329 324 326 331 330 329 329 327 325 324 323 325 325 324 324 324 323 320 317
8 7 8 15 23 23 20 18 15 9 8 8 4 1 358 356 355 354 352 350 349 348 347 347 346 345 343 341 339 337 336 337 335 335 335 334 334 334 334 333 332 331 331 331 330 330 330 330 329 330 332 330 327 327 326 321 319 319 321 322 321 320 322 323 322 321 320 318 321 323 321 323 327 326 326 327 324 322 321 321 322 322 322 323 324 324 323 321
8 18 16 21 28 22 12 8 5 1 1 0 358 356 353 351 350 349 347 346 345 344 344 344 343 342 341 339 338 337 335 335 333 333 334 333 333 333 333 332 332 331 331 330 329 329 329 329 328 328 330 329 327 326 325 323 321 320 320 321 319 319 322 324 323 321 318 317 319 320 318 321 325 322 321 324 322 320 320 320 320 320 320 321 321 321 321 321
14 23 14 14 19 10 2 0 357 355 356 354 352 351 348 346 345 344 342 342 341 341 342 342 341 341 340 339 338 336 335 334 333 333 333 333 333 333 332 332 332 332 330 329 328 328 327 328 327 326 327 327 326 325 325 325 323 322 322 320 318 319 322 324 324 323 320 318 319 318 316 319 322 319 319 322 322 320 319 319 318 318 318 318 318 318 318 319
15 12 2 2 2 359 357 354 352 352 351 349 347 345 343 342 341 340 339 339 340 340 341 341 341 340 339 338 336 335 335 334 333 334 334 333 333 333 332 332 332 331 330 328 328 327 327 328 327 325 325 326 325 323 323 323 323 322 323 323 320 320 322 323 324 324 322 319 318 317 315 317 320 318 319 321 320 318 318 318 318 318 317 316 316 316 316 316
4 356 355 355 355 354 351 349 349 348 346 345 343 341 340 339 338 337 337 338 339 340 340 340 339 339 338 337 336 335 335 334 334 334 334 334 334 333 333 332 331 330 330 329 328 328 327 328 327 325 324 324 324 322 321 322 323 324 327 326 322 320 320 320 321 323 323 320 319 316 314 315 317 317 316 318 318 318 318 318 318 317 316 315 314 314 313 312